Location: Newark
(31.5350°N, 35.0986°E)
Time: 21:16:55
(UTC+00:00)

Vanguard 1 - Pass Details

Date: 26 September 2019
Orbit: 653 x 3830 km, 34.3° (Epoch: 14 October)

Event Time Altitude Azimuth Distance (km) Brightness Sun altitude
Rises 21:42:29 0° 240° (WSW) 6,704 - -59.7°
Reaches altitude 10° 21:46:21 10° 239° (WSW) 6,000 - -59.6°
Maximum altitude 22:07:30 80° 156° (SSE) 3,858 - -58.7°
Exits shadow 22:14:26 58° 84° (E) 4,194 12.9 -58.2°
Drops below altitude 10° 22:30:02 10° 74° (ENE) 6,328 14.4 -56.8°
Sets 22:34:15 0° 73° (ENE) 7,066 14.8 -56.4°
